Loisir ou Compétition : Rejoignez un Club de la Fédération

Résultats

GP VILLARD SUR BOEGE

BRASSES ST JEOIRE

FS Dames

Jury de Compétition

Délégué Technique :
PIQUOT SYLVAIN (MB)
D.T. Adjoint :
SUTTER YOHANN (MB)
Dir. Epreuve :
OLLIVIER PLAUD ALIX (MB)

Caractéristiques de la Piste

Piste :
Plaine Joux
Distance :
2 km
Point Haut :
 
Point Bas :
 
Montée Tot. :
 
Montée Max. :
 
Homologation :
 

Pénalité Appliquée :
 
Coefficient :
 

Catégorie :
U13
Style :
L
Clt Dos Clt/Cat Code An Nom Prénom Com Club Temps Ecart Points
Classés
1 71 1/U13 FFS2684764 2007 GACHET EMMA MB CS MEGEVE 05:50.1 00:00.0
2 67 2/U13 FFS2702072 2007 PAWLIKOWSKI ELISE MB SCNP ROCHOIS 05:54.9 00:04.8
3 70 3/U13 FFS2696901 2007 OLIVA JULIETTE MB SALLANCHES 05:57.0 00:06.9
4 68 4/U13 FFS2670506 2007 AILLOUD LUCIE MB VILLARD/BOEG 06:03.4 00:13.3
5 66 5/U13 FFS2696621 2007 PALLUD BAMBOU MB DRAGONS ANNY 06:04.8 00:14.7
6 69 6/U13 FFS2692044 2007 CANET CLOE MB CS LA CLUSAZ 06:10.2 00:20.1
7 59 7/U13 FFS2680468 2007 GAUDILLAT AGATHE MB SC D'AGY 06:10.5 00:20.4
8 14 8/U13 FFS2701945 2008 COUDER CASSANDRE MB CS LA CLUSAZ 06:14.9 00:24.8
9 61 9/U13 FFS2696649 2007 GODEY EMILIE MB CS CHAMONIX 06:16.0 00:25.9
10 62 10/U13 FFS2697569 2007 DELERCE CAMILLE MB SC D'AGY 06:18.2 00:28.1
11 64 11/U13 FFS2696903 2007 PINEL JULIA MB SALLANCHES 06:18.9 00:28.8
12 56 12/U13 FFS2699864 2007 GASSILLOUD EMMA MB VILLARD/BOEG 06:21.0 00:30.9
13 54 13/U13 FFS2696870 2007 CHARDON MATHILDE MB VILLARD/BOEG 06:21.4 00:31.3
14 40 14/U13 FFS2683076 2007 SAVEL LEA MB VILLARD/BOEG 06:22.9 00:32.8
15 65 15/U13 FFS2696423 2007 ALAIS ANGELE MB SC GD BORNAN 06:24.3 00:34.2
16 1 16/U13 FFS2689916 2008 OUVRIER BUFFET ADELE MB CS LA CLUSAZ 06:26.1 00:36.0
17 60 17/U13 FFS2696535 2007 BETRIX MELINA MB CHABLAIS NOR 06:26.3 00:36.2
18 16 18/U13 FFS2684072 2008 GODICHAUD WIART CELINE MB VILLARD/BOEG 06:26.9 00:36.8
19 51 19/U13 FFS2696303 2007 ROUX HELOISE MB SC CONTAMINE 06:27.4 00:37.3
20 7 20/U13 FFS2702045 2008 CHAVEROT EVE MB SCNP ROCHOIS 06:27.8 00:37.7
21 6 21/U13 FFS2701295 2008 ROYET THAIS MB SC GD BORNAN 06:28.0 00:37.9
22 22 22/U13 FFS2701959 2008 PERRILLAT BOTTONET ANNA MB CS LA CLUSAZ 06:29.1 00:39.0
23 18 23/U13 FFS2701801 2008 FRANCIS ROBLEDO AMBRE MB DRAGONS ANNY 06:30.1 00:40.0
24 23 24/U13 FFS2702248 2008 BRETON ELISE MB VILLARD/BOEG 06:30.8 00:40.7
25 47 25/U13 FFS2696371 2007 HUSSONG FLORE MB CS LA CLUSAZ 06:31.1 00:41.0
26 10 26/U13 FFS2701684 2008 CHARVET STELLIE ROSE MB PRAZ LYS-SOM 06:32.0 00:41.9
27 53 27/U13 FFS2696424 2007 BASTARD ROSSET NELLY MB SC GD BORNAN 06:32.4 00:42.3
28 26 28/U13 FFS2702811 2008 LERUSTE BRUNET ASTRID MB EN HT GIFFRE 06:32.5 00:42.4
29 49 29/U13 FFS2692041 2007 PROFIT ELINE MB CS LA CLUSAZ 06:33.2 00:43.1
30 42 30/U13 FFS2697961 2007 OREMUS JUDITH MB VILLARD/BOEG 06:33.6 00:43.5
31 55 31/U13 FFS2696663 2007 RUBY LUDMILLA MB CS ARGENTIER 06:34.1 00:44.0
32 43 32/U13 FFS2679359 2007 ESTEVES GUER PAULINE MB CS MEGEVE 06:34.3 00:44.2
33 46 33/U13 FFS2690260 2007 PASCUAL NINA MB LES GETS S.C 06:35.8 00:45.7
34 57 34/U13 FFS2697711 2007 ISABELLA LOUISON MB VILLARD/BOEG 06:36.0 00:45.9
35 31 35/U13 FFS2701948 2008 KJAER PORTE ANNA MB CS LA CLUSAZ 06:36.7 00:46.6
36 28 36/U13 FFS2701963 2008 VITTOZ LEA MB CS LA CLUSAZ 06:36.9 00:46.8
37 41 37/U13 FFS2678871 2007 FAVRE BONVIN MAYA MB SC GD BORNAN 06:37.8 00:47.7
38 52 38/U13 FFS2692037 2007 LOUBIERE PORET ISALINE MB CS LA CLUSAZ 06:37.9 00:47.8
39 2 39/U13 FFS2701286 2008 BEAUMONT EMMY MB SC GD BORNAN 06:38.9 00:48.8
40 13 40/U13 FFS2701272 2008 PERRISSIN FABERT CLEMENCE MB SC GD BORNAN 06:40.5 00:50.4
41 48 41/U13 FFS2702415 2007 BERTRAND LEONORE MB CNG 06:40.7 00:50.6
42 44 42/U13 FFS2696620 2007 JUIGNIER SINTUREL MAYA MB DRAGONS ANNY 06:41.0 00:50.9
43 58 43/U13 FFS2678277 2007 PICCOT JADE MB VILLARD/BOEG 06:42.2 00:52.1
44 15 44/U13 FFS2703961 2008 LOREAU LINA MB EN HT GIFFRE 06:44.3 00:54.2
45 21 45/U13 FFS2701271 2008 POPINET FREIDEL NINA MB SC GD BORNAN 06:44.9 00:54.8
46 24 46/U13 FFS2701277 2008 PAOLUCCI EMMI MB SC GD BORNAN 06:45.4 00:55.3
47 45 47/U13 FFS2702418 2007 PETROD JULIE MB CNG 06:46.8 00:56.7
48 11 48/U13 FFS2701270 2008 GONIN LISON MB SC GD BORNAN 06:48.2 00:58.1
49 27 49/U13 FFS2684515 2008 VIALLET EMELINE MB SC GD BORNAN 06:49.0 00:58.9
50 32 50/U13 FFS2701269 2008 GAILLARD LIAUDON SIDONIE MB SC GD BORNAN 06:49.7 00:59.6
51 25 51/U13 FFS2705637 2008 MARCON HELOISE MB CS CHAMONIX 06:52.7 01:02.6
52 12 52/U13 FFS2701952 2008 MAUGAIN LEIA MB CS LA CLUSAZ 06:54.7 01:04.6
53 5 53/U13 FFS2704492 2008 POLLAERT AMANDINE MB DRAGONS ANNY 07:01.0 01:10.9
54 17 54/U13 FFS2701940 2008 DE LAAGE ADELE MB CS CHAMONIX 07:06.8 01:16.7
55 3 55/U13 FFS2702252 2008 SORDET JADE MB VILLARD/BOEG 07:07.3 01:17.2
56 39 56/U13 FFS2702551 2007 FERRAND LEA MB DRAGONS ANNY 07:10.6 01:20.5
57 8 57/U13 FFS2703282 2008 LANGLAIS MANON MB CHABLAIS NOR 07:12.1 01:22.0
58 9 58/U13 FFS2695583 2008 SARRAZIN OCEANNE MB CS LA CLUSAZ 07:16.6 01:26.5
59 36 59/U13 FFS2697567 2007 DEBALME MARIE LOU MB SC D'AGY 07:17.4 01:27.3
60 38 60/U13 FFS2696827 2007 CONTANT ISALIE MB PRAZ LYS-SOM 07:21.5 01:31.4
61 30 61/U13 FFS2703284 2008 TESSIER LEENA MB CHABLAIS NOR 07:27.1 01:37.0
62 35 62/U13 FFS2705256 2007 CRAVERO JAIONA MB SC CONTAMINE 07:31.5 01:41.4
Non partants
4 FFS2705164 2008 BAUD JUSTINE MB SC D'AGY
19 FFS2703721 2008 CARLE TIPHAINE MB DRAGONS ANNY
20 EXT867862173 2008 TRITTER MARIE SC VILLARD
29 FFS2701918 2008 ALVIN BESSON JAIS MB CS LA CLUSAZ
37 FFS2696664 2007 VANKREN LENA MB CS ARGENTIER
50 FFS2696432 2007 PERRILLAT COLLOMB AGATHE MB SC GD BORNAN
63 FFS2696864 2007 ACHOUI MAELLE MB VILLARD/BOEG